"startDT [UTC]","vpos","CH4 [ppm]","stdev(CH4) [ppm]","CO2 [ppm]","stdev(CO2) [ppm]","H2O [ppm]","stdev(H2O)","p_LGR [torr]","T_LGR [C]","mt1_LGR [us]","mt2_LGR [us]","T_ECpre [C]","T_EC1 [C]","T_EC2 [C]","p_inlet [hPa]","p_in [hPa]","p_out [hPa]","T_inlet [C]","RH_inlet [%]","dwpt_inlet [C]","T_vent [C]","RH_vent [%]","dwpt_vent [C]","flow_vent [l min-1]","flow_inlet [l min-1]","dwpt_sample [C]","T_room [C]"
2012-08-28 00:00:00,0.0,1.8959,0.0008,387.02,0.30,217.3,27.6,138.05,30.87,24.66,36.54,0.94,17.40,-26.04,-46,40,-935,23.5,24.6,2.1,23.7,1.9,-29.0,5.73,2.58,-27.5,29.5
2012-08-28 00:01:00,0.0,1.8959,0.0008,387.02,0.30,212.1,31.7,138.05,30.88,24.66,36.54,0.94,17.43,-26.03,-46,40,-935,23.5,24.7,2.2,23.7,1.9,-29.0,5.73,2.57,-27.5,29.5
2012-08-28 00:02:00,0.0,1.8961,0.0007,387.00,0.28,220.4,27.4,138.05,30.89,24.65,36.54,0.93,17.47,-26.03,-46,40,-935,23.5,24.9,2.3,23.7,1.9,-29.0,5.73,2.56,-27.5,29.4
2012-08-28 00:03:00,0.0,1.8961,0.0009,387.16,0.32,219.1,27.4,138.04,30.90,24.66,36.54,0.94,17.49,-26.03,-46,40,-935,23.5,24.7,2.2,23.7,1.9,-29.0,5.73,2.55,-27.5,29.4
2012-08-28 00:04:00,0.0,1.8963,0.0008,387.27,0.28,213.3,32.7,138.04,30.91,24.66,36.54,0.94,17.52,-26.02,-46,40,-935,23.5,24.4,1.9,23.7,1.9,-29.0,5.73,2.56,-27.5,29.4
2012-08-28 00:05:00,0.0,1.8969,0.0009,387.31,0.29,220.1,31.6,138.04,30.92,24.66,36.54,0.94,17.54,-26.01,-46,40,-935,23.5,24.1,1.8,23.7,1.9,-29.0,5.73,2.58,-27.5,29.4
2012-08-28 00:06:00,0.0,1.8964,0.0009,387.23,0.27,213.3,29.9,138.04,30.92,24.66,36.54,0.94,17.57,-26.01,-46,40,-934,23.5,24.0,1.8,23.7,1.9,-29.1,5.73,2.58,-27.5,29.4
2012-08-28 00:07:00,0.0,1.8963,0.0008,387.24,0.35,207.3,32.9,138.04,30.93,24.66,36.54,0.94,17.59,-26.01,-46,40,-934,23.5,24.1,1.8,23.7,1.9,-29.1,5.73,2.55,-27.5,29.5
2012-08-28 00:08:00,0.0,1.8964,0.0008,387.07,0.32,214.6,23.4,138.04,30.93,24.66,36.55,0.93,17.62,-26.01,-46,40,-935,23.5,24.4,1.9,23.7,1.9,-29.1,5.73,2.55,-27.5,29.4
2012-08-28 00:09:00,0.0,1.8966,0.0009,387.23,0.29,205.1,26.9,138.04,30.94,24.66,36.54,0.93,17.64,-26.00,-46,40,-935,23.5,24.4,1.9,23.7,1.9,-29.1,5.73,2.56,-27.5,29.5
2012-08-28 00:10:00,0.0,1.8964,0.0010,387.12,0.25,209.1,34.1,138.04,30.95,24.66,36.54,0.94,17.66,-26.00,-46,40,-935,23.5,24.7,2.1,23.7,1.9,-29.2,5.73,2.57,-27.6,29.5
2012-08-28 00:11:00,0.0,1.8969,0.0009,387.23,0.30,208.3,29.2,138.04,30.96,24.66,36.54,0.94,17.68,-26.00,-46,40,-935,23.5,24.6,2.1,23.7,1.9,-29.2,5.73,2.58,-27.6,29.5
2012-08-28 00:12:00,0.0,1.8965,0.0008,387.07,0.28,206.4,28.5,138.04,30.97,24.66,36.55,0.94,17.71,-26.00,-46,40,-935,23.5,24.6,2.1,23.6,1.9,-29.2,5.73,2.56,-27.6,29.5
2012-08-28 00:13:00,0.0,1.8968,0.0008,387.15,0.31,208.1,30.6,138.04,30.97,24.66,36.54,0.93,17.72,-26.00,-46,40,-935,23.4,24.5,2.0,23.6,1.9,-29.2,5.73,2.55,-27.6,29.4
2012-08-28 00:14:00,0.0,1.8967,0.0008,387.22,0.27,212.0,28.7,138.04,30.98,24.66,36.53,0.93,17.74,-26.00,-46,40,-935,23.4,24.7,2.1,23.6,1.9,-29.2,5.73,2.56,-27.6,29.4
2012-08-28 00:15:00,0.0,1.8971,0.0010,387.06,0.30,206.6,30.0,138.04,30.99,24.65,36.54,0.94,17.76,-25.99,-46,40,-934,23.4,25.0,2.2,23.6,1.9,-29.2,5.73,2.58,-27.6,29.4
2012-08-28 00:16:00,0.0,1.8969,0.0009,387.19,0.35,218.2,30.0,138.04,30.99,24.66,36.54,0.93,17.77,-25.99,-46,40,-935,23.4,24.9,2.2,23.6,1.9,-29.2,5.73,2.58,-27.6,29.4
2012-08-28 00:17:00,0.0,1.8963,0.0008,386.95,0.31,215.7,28.9,138.04,31.00,24.66,36.54,0.94,17.78,-25.99,-46,40,-935,23.4,24.9,2.2,23.6,1.9,-29.2,5.73,2.56,-27.6,29.4
2012-08-28 00:18:00,0.0,1.8967,0.0011,387.21,0.26,204.4,29.0,138.04,31.00,24.66,36.54,0.94,17.80,-25.98,-46,40,-935,23.4,24.6,2.0,23.6,1.9,-29.2,5.73,2.55,-27.6,29.4
2012-08-28 00:19:00,0.0,1.8967,0.0008,387.09,0.30,214.3,30.4,138.04,31.01,24.66,36.54,1.02,17.18,-25.98,-46,40,-935,23.4,24.5,2.0,23.6,1.9,-29.2,5.73,2.57,-27.6,29.4
2012-08-28 00:20:00,0.0,1.8968,0.0008,386.90,0.36,214.1,26.7,138.04,31.01,24.66,36.54,1.12,15.21,-25.99,-46,40,-934,23.4,24.5,2.0,23.6,1.9,-29.2,5.73,2.58,-27.6,29.3
2012-08-28 00:21:00,0.0,1.8970,0.0010,387.06,0.34,207.4,29.4,138.04,31.02,24.66,36.54,0.98,12.91,-25.99,-46,40,-935,23.4,24.4,1.9,23.6,1.9,-29.2,5.73,2.57,-27.6,29.3
2012-08-28 00:22:00,0.0,1.8965,0.0008,387.07,0.32,209.0,34.7,138.04,31.02,24.66,36.54,0.98,10.60,-25.98,-46,40,-935,23.4,24.3,1.8,23.6,1.9,-29.2,5.73,2.56,-27.6,29.3
2012-08-28 00:23:00,0.0,1.8963,0.0009,386.99,0.33,206.7,31.3,138.04,31.03,24.66,36.54,1.08,8.35,-25.97,-46,40,-935,23.4,24.5,2.0,23.6,1.9,-29.2,5.73,2.56,-27.6,29.3
2012-08-28 00:24:00,0.0,1.8968,0.0009,386.88,0.36,207.2,27.2,138.04,31.03,24.66,36.54,1.06,6.18,-25.96,-46,40,-935,23.4,24.6,2.0,23.6,1.9,-29.2,5.73,2.58,-27.6,29.3
2012-08-28 00:25:00,0.0,1.8970,0.0008,387.10,0.26,213.7,28.7,138.04,31.04,24.66,36.55,0.96,4.12,-25.94,-46,40,-934,23.4,24.1,1.7,23.6,1.9,-29.2,5.73,2.59,-27.6,29.2
2012-08-28 00:26:00,0.0,1.8966,0.0008,387.09,0.28,217.1,32.1,138.05,31.04,24.66,36.54,1.05,2.22,-25.92,-46,40,-934,23.4,24.2,1.8,23.6,1.9,-29.2,5.73,2.55,-27.6,29.2
2012-08-28 00:27:00,0.0,1.8966,0.0009,387.02,0.35,215.5,29.3,138.05,31.05,24.66,36.55,1.09,0.51,-25.91,-46,40,-935,23.3,24.3,1.8,23.5,1.9,-29.1,5.73,2.56,-27.6,29.2
2012-08-28 00:28:00,0.0,1.8971,0.0010,386.96,0.28,222.3,28.0,138.05,31.05,24.66,36.54,0.97,-1.20,-25.90,-46,41,-935,23.4,24.0,1.6,23.5,1.9,-29.1,5.73,2.59,-27.6,29.2
2012-08-28 00:29:00,0.0,1.8977,0.0009,386.95,0.30,213.5,30.1,138.05,31.06,24.66,36.54,1.00,-2.80,-25.88,-46,40,-935,23.4,23.2,1.1,23.5,1.9,-29.1,5.73,2.58,-27.6,29.2
2012-08-28 00:30:00,0.0,1.8978,0.0007,387.03,0.26,207.4,33.2,138.05,31.06,24.66,36.54,1.08,-4.32,-25.87,-46,40,-934,23.3,23.0,1.1,23.5,1.9,-29.1,5.73,2.55,-27.6,29.1
2012-08-28 00:31:00,0.0,1.8975,0.0011,386.87,0.29,209.8,31.4,138.05,31.06,24.66,36.53,1.02,-5.53,-25.86,-46,41,-934,23.4,23.2,1.2,23.5,1.9,-29.1,5.73,2.58,-27.6,29.1
2012-08-28 00:32:00,0.0,1.8973,0.0008,386.89,0.35,217.8,26.2,138.05,31.06,24.66,36.54,0.97,-6.20,-25.85,-46,41,-935,23.4,23.1,1.1,23.5,1.9,-29.0,5.73,2.59,-27.5,29.1
2012-08-28 00:33:00,0.0,1.8969,0.0008,386.89,0.33,222.4,32.1,138.05,31.07,24.65,36.54,1.04,-7.84,-25.84,-46,41,-935,23.4,23.1,1.1,23.5,1.9,-29.1,5.73,2.56,-27.5,29.0
2012-08-28 00:34:00,0.0,1.8967,0.0009,386.64,0.34,218.4,28.8,138.05,31.07,24.66,36.54,1.08,-9.26,-25.83,-46,41,-935,23.4,23.4,1.3,23.6,1.9,-29.1,5.73,2.57,-27.5,29.1
2012-08-28 00:35:00,0.0,1.8966,0.0009,386.79,0.32,223.9,29.2,138.05,31.07,24.66,36.53,0.98,-10.50,-25.83,-46,41,-935,23.4,23.6,1.4,23.6,1.9,-29.1,5.73,2.60,-27.5,29.1
2012-08-28 00:36:00,0.0,1.8964,0.0010,386.95,0.28,226.4,29.3,138.06,31.07,24.66,36.54,0.99,-11.38,-25.83,-46,41,-935,23.4,23.5,1.4,23.6,1.9,-29.1,5.73,2.56,-27.5,29.1
2012-08-28 00:37:00,0.0,1.8963,0.0009,386.75,0.26,222.2,26.3,138.06,31.07,24.66,36.54,1.05,-12.44,-25.84,-46,41,-934,23.4,23.6,1.4,23.5,1.9,-29.1,5.73,2.57,-27.5,29.1
2012-08-28 00:38:00,0.0,1.8959,0.0009,386.94,0.30,225.1,29.2,138.06,31.07,24.66,36.53,1.06,-13.52,-25.83,-46,41,-934,23.4,23.5,1.4,23.6,1.9,-29.1,5.73,2.60,-27.5,29.1
2012-08-28 00:39:00,0.0,1.8959,0.0009,386.79,0.32,222.5,30.2,138.06,31.06,24.66,36.54,0.96,-14.41,-25.84,-47,41,-935,23.4,23.4,1.3,23.6,1.9,-29.1,5.73,2.56,-27.5,29.1
2012-08-28 00:40:00,0.0,1.8958,0.0008,386.90,0.30,220.6,28.8,138.06,31.06,24.66,36.53,1.00,-15.29,-25.84,-46,41,-935,23.4,23.3,1.3,23.6,1.9,-29.1,5.73,2.58,-27.6,29.1
2012-08-28 00:41:00,0.0,1.8959,0.0010,386.89,0.29,228.3,25.1,138.06,31.06,24.66,36.54,1.06,-16.10,-25.84,-47,41,-935,23.4,23.3,1.3,23.5,1.9,-29.1,5.73,2.60,-27.6,29.0
2012-08-28 00:42:00,0.0,1.8961,0.0009,386.78,0.26,219.5,28.8,138.06,31.05,24.65,36.53,1.04,-16.86,-25.84,-46,41,-935,23.5,23.5,1.4,23.6,1.9,-29.1,5.73,2.55,-27.6,29.0
2012-08-28 00:43:00,0.0,1.8956,0.0008,386.84,0.34,226.6,30.5,138.06,31.05,24.66,36.53,0.97,-17.58,-25.85,-46,41,-935,23.5,23.6,1.5,23.6,1.9,-29.1,5.73,2.59,-27.6,29.0
2012-08-28 00:44:00,0.0,1.8958,0.0008,386.61,0.35,221.8,31.6,138.06,31.05,24.66,36.54,1.00,-18.26,-25.86,-47,41,-934,23.5,23.8,1.6,23.5,1.9,-29.1,5.73,2.60,-27.6,29.0
2012-08-28 00:45:00,0.0,1.8960,0.0008,386.66,0.23,224.9,29.3,138.06,31.05,24.66,36.54,1.05,-18.93,-25.86,-46,41,-935,23.5,23.8,1.6,23.6,1.9,-29.1,5.73,2.56,-27.6,29.0
2012-08-28 00:46:00,0.0,1.8958,0.0009,386.83,0.29,225.6,27.7,138.07,31.05,24.66,36.53,1.02,-19.55,-25.87,-47,41,-935,23.4,23.5,1.4,23.6,1.9,-29.0,5.73,2.59,-27.6,29.0
2012-08-28 00:47:00,0.0,1.8957,0.0010,386.65,0.31,214.7,30.3,138.06,31.05,24.66,36.54,0.97,-20.14,-25.88,-46,41,-935,23.5,23.9,1.7,23.6,1.9,-29.1,5.73,2.59,-27.6,29.0
2012-08-28 00:48:00,0.0,1.8950,0.0008,386.52,0.31,227.2,29.2,138.07,31.05,24.67,36.54,0.98,-20.70,-25.88,-47,41,-935,23.5,24.1,1.8,23.6,1.9,-29.1,5.73,2.56,-27.6,29.0
2012-08-28 00:49:00,0.0,1.8954,0.0008,386.38,0.30,220.6,27.9,138.07,31.04,24.66,36.54,1.06,-21.22,-25.90,-47,41,-935,23.5,24.5,2.0,23.6,1.9,-29.2,5.73,2.61,-27.6,29.0
2012-08-28 00:50:00,0.0,1.8954,0.0008,386.51,0.26,218.1,33.1,138.07,31.04,24.66,36.54,1.04,-21.71,-25.90,-47,41,-934,23.5,23.9,1.7,23.6,1.9,-29.2,5.73,2.58,-27.6,29.0
2012-08-28 00:51:00,0.0,1.8951,0.0009,386.60,0.28,224.8,21.4,138.07,31.04,24.66,36.54,0.95,-22.18,-25.91,-47,41,-934,23.5,23.4,1.4,23.6,1.9,-29.2,5.73,2.57,-27.6,29.0
2012-08-28 00:52:00,0.0,1.8958,0.0007,386.58,0.30,229.5,27.2,138.07,31.04,24.66,36.54,0.97,-22.61,-25.92,-47,41,-935,23.5,23.4,1.4,23.6,1.9,-29.2,5.73,2.61,-27.6,29.0
2012-08-28 00:53:00,0.0,1.8955,0.0009,386.48,0.28,220.7,28.2,138.07,31.04,24.66,36.54,1.03,-23.02,-25.93,-47,41,-935,23.5,23.6,1.5,23.5,1.9,-29.3,5.73,2.57,-27.6,28.9
2012-08-28 00:54:00,0.0,1.8954,0.0009,386.50,0.29,222.8,23.9,138.07,31.04,24.66,36.53,1.06,-23.40,-25.94,-47,41,-935,23.5,23.8,1.6,23.5,1.9,-29.3,5.73,2.59,-27.6,29.0
2012-08-28 00:55:00,0.0,1.8959,0.0009,386.56,0.26,223.4,29.1,138.07,31.04,24.66,36.54,1.00,-23.77,-25.94,-47,41,-935,23.5,23.2,1.3,23.5,1.9,-29.3,5.73,2.61,-27.6,28.9
2012-08-28 00:56:00,0.0,1.8957,0.0009,386.37,0.29,220.7,31.3,138.07,31.03,24.66,36.54,0.96,-24.11,-25.95,-47,41,-935,23.5,23.4,1.4,23.6,1.9,-29.2,5.73,2.56,-27.6,28.9
2012-08-28 00:57:00,0.0,1.8959,0.0009,386.44,0.31,221.4,28.8,138.07,31.03,24.66,36.54,0.99,-24.44,-25.96,-47,41,-935,23.5,23.4,1.4,23.6,1.9,-29.2,5.73,2.60,-27.6,28.9
2012-08-28 00:58:00,0.0,1.8957,0.0010,386.60,0.35,219.7,29.9,138.07,31.03,24.66,36.53,1.05,-24.74,-25.97,-47,41,-935,23.5,23.2,1.3,23.6,1.9,-29.2,5.73,2.58,-27.7,28.9
2012-08-28 00:59:00,0.0,1.8958,0.0009,386.46,0.31,224.6,32.2,138.07,31.03,24.66,36.54,1.04,-25.04,-25.97,-47,41,-934,23.5,23.3,1.3,23.6,1.9,-29.2,5.73,2.57,-27.6,28.9
2012-08-28 01:00:00,0.0,1.8957,0.0009,386.46,0.26,218.3,30.4,138.07,31.03,24.66,36.54,0.97,-25.32,-25.98,-47,41,-934,23.5,23.4,1.4,23.6,1.9,-29.2,5.73,2.61,-27.6,29.0
2012-08-28 01:01:00,0.0,1.8957,0.0009,386.55,0.27,224.2,28.8,138.07,31.03,24.66,36.53,0.97,-25.57,-25.99,-47,41,-935,23.5,23.5,1.5,23.6,1.9,-29.2,5.73,2.57,-27.7,29.0
2012-08-28 01:02:00,0.0,1.8954,0.0010,386.43,0.31,222.3,29.7,138.07,31.02,24.66,36.53,0.99,-25.81,-26.00,-47,41,-935,23.5,23.9,1.7,23.6,1.9,-29.2,5.73,2.60,-27.7,29.0
2012-08-28 01:03:00,0.0,1.8956,0.0009,386.46,0.30,220.2,33.6,138.07,31.02,24.66,36.54,0.92,-25.89,-26.00,-47,41,-935,23.5,23.5,1.5,23.6,1.9,-29.2,5.73,2.59,-27.7,29.0
2012-08-28 01:04:00,0.0,1.8956,0.0009,386.31,0.27,222.5,33.0,138.07,31.02,24.66,36.54,1.04,-25.67,-26.01,-47,41,-935,23.5,23.2,1.3,23.6,1.9,-29.3,5.73,2.57,-27.7,29.1
2012-08-28 01:05:00,0.0,1.8954,0.0008,386.44,0.32,222.9,30.0,138.07,31.02,24.66,36.54,1.05,-25.81,-26.02,-47,41,-935,23.5,22.9,1.2,23.7,1.8,-29.3,5.73,2.62,-27.7,29.0
2012-08-28 01:06:00,0.0,1.8955,0.0008,386.52,0.32,219.2,27.8,138.07,31.02,24.66,36.53,0.92,-25.95,-26.03,-47,41,-935,23.6,22.8,1.1,23.6,1.8,-29.3,5.73,2.56,-27.7,29.0
2012-08-28 01:07:00,0.0,1.8953,0.0009,386.38,0.32,224.3,29.3,138.07,31.01,24.66,36.54,0.97,-25.69,-26.03,-47,41,-935,23.6,23.2,1.4,23.7,1.8,-29.3,5.73,2.61,-27.7,29.0
2012-08-28 01:08:00,0.0,1.8950,0.0007,386.36,0.29,220.7,27.1,138.07,31.01,24.66,36.54,1.00,-25.79,-26.04,-47,41,-935,23.6,23.5,1.6,23.7,1.8,-29.3,5.73,2.59,-27.7,29.0
2012-08-28 01:09:00,0.0,1.8953,0.0008,386.53,0.27,214.2,27.7,138.07,31.00,24.66,36.54,1.03,-25.98,-26.05,-47,41,-935,23.6,23.1,1.3,23.7,1.8,-29.3,5.73,2.58,-27.7,29.0
2012-08-28 01:10:00,0.0,1.8948,0.0009,386.50,0.32,222.1,29.8,138.07,31.00,24.66,36.54,1.01,-25.78,-26.05,-47,41,-935,23.6,23.0,1.3,23.7,1.8,-29.3,5.73,2.64,-27.8,29.0
2012-08-28 01:11:00,0.0,1.8949,0.0010,386.44,0.32,213.0,27.5,138.07,31.00,24.66,36.53,0.99,-25.77,-26.06,-47,41,-934,23.6,23.1,1.3,23.7,1.9,-29.3,5.73,2.59,-27.8,29.0
2012-08-28 01:12:00,0.0,1.8954,0.0010,386.20,0.27,218.2,28.8,138.07,31.00,24.66,36.54,0.96,-25.95,-26.07,-47,41,-935,23.6,23.4,1.5,23.7,1.8,-29.3,5.73,2.61,-27.8,29.0
2012-08-28 01:13:00,0.0,1.8951,0.0009,386.36,0.28,217.0,29.9,138.07,31.00,24.66,36.54,0.96,-25.90,-26.07,-47,41,-935,23.6,23.4,1.5,23.7,1.8,-29.3,5.73,2.59,-27.8,29.0
2012-08-28 01:14:00,0.0,1.8949,0.0008,386.49,0.29,220.5,25.4,138.07,31.00,24.66,36.54,1.03,-25.75,-26.09,-47,41,-935,23.6,23.2,1.4,23.7,1.8,-29.3,5.73,2.58,-27.8,29.0
2012-08-28 01:15:00,0.0,1.8953,0.0008,386.42,0.24,221.6,29.0,138.07,31.00,24.66,36.54,1.07,-25.91,-26.09,-47,41,-935,23.6,23.5,1.5,23.7,1.8,-29.3,5.73,2.61,-27.8,29.0
2012-08-28 01:16:00,0.0,1.8944,0.0008,386.31,0.29,223.6,31.1,138.07,31.00,24.66,36.54,0.93,-26.01,-26.09,-47,41,-935,23.6,23.9,1.8,23.7,1.8,-29.3,5.73,2.57,-27.8,29.0
2012-08-28 01:17:00,0.0,1.8953,0.0008,386.32,0.24,211.7,26.7,138.07,31.00,24.66,36.54,0.97,-25.76,-26.10,-47,41,-935,23.6,23.7,1.7,23.7,1.8,-29.3,5.73,2.60,-27.8,29.0
2012-08-28 01:18:00,0.0,1.8950,0.0008,386.47,0.31,218.2,29.1,138.07,31.00,24.66,36.54,0.88,-25.89,-25.69,-47,41,-935,23.6,23.6,1.6,23.7,1.8,-29.3,5.73,2.61,-27.8,29.0
2012-08-28 01:19:00,0.0,1.8947,0.0008,386.33,0.23,221.9,31.1,138.07,30.99,24.66,36.54,0.95,-26.08,-24.04,-47,41,-935,23.6,23.6,1.6,23.7,1.8,-29.4,5.73,2.57,-27.7,29.0
2012-08-28 01:20:00,0.0,1.8950,0.0008,386.37,0.24,241.1,30.7,138.07,30.99,24.66,36.54,0.94,-26.21,-22.07,-47,41,-935,23.6,23.5,1.6,23.7,1.9,-29.2,5.73,2.61,-27.3,29.0
2012-08-28 01:21:00,0.0,1.8949,0.0010,386.50,0.30,277.1,31.9,138.07,30.99,24.66,36.54,0.87,-26.28,-20.12,-47,41,-935,23.6,23.5,1.6,23.7,2.0,-28.5,5.73,2.60,-26.8,29.0
2012-08-28 01:22:00,0.0,1.8949,0.0009,386.39,0.28,300.1,27.8,138.07,30.98,24.66,36.54,0.81,-26.32,-18.24,-47,41,-936,23.6,23.6,1.6,23.7,2.1,-27.8,5.73,2.58,-26.5,29.0
2012-08-28 01:23:00,0.0,1.8946,0.0009,386.31,0.29,317.5,29.9,138.07,30.98,24.66,36.54,0.86,-26.33,-16.46,-47,41,-935,23.6,23.8,1.8,23.7,2.2,-27.4,5.73,2.62,-26.3,29.0
2012-08-28 01:24:00,0.0,1.8944,0.0009,386.29,0.30,319.3,36.3,138.07,30.98,24.66,36.53,0.91,-26.33,-14.77,-47,41,-935,23.6,24.2,1.9,23.7,2.3,-27.1,5.73,2.58,-26.2,29.0
2012-08-28 01:25:00,0.0,1.8946,0.0010,386.38,0.27,323.8,29.8,138.07,30.98,24.66,36.54,0.93,-26.33,-13.17,-47,41,-936,23.6,24.2,1.9,23.7,2.3,-27.0,5.73,2.60,-26.2,29.0
2012-08-28 01:26:00,0.0,1.8943,0.0008,386.29,0.27,332.1,29.2,138.07,30.98,24.66,36.54,0.95,-26.32,-11.65,-47,41,-936,23.6,24.4,2.1,23.7,2.3,-27.0,5.73,2.62,-26.2,29.0
2012-08-28 01:27:00,0.0,1.8947,0.0009,386.35,0.27,327.6,27.6,138.07,30.98,24.66,36.54,0.91,-26.31,-10.22,-47,41,-936,23.6,24.4,2.1,23.7,2.3,-27.1,5.73,2.58,-26.2,29.0
2012-08-28 01:28:00,0.0,1.8949,0.0009,386.23,0.27,324.0,31.8,138.07,30.98,24.66,36.54,0.85,-26.30,-8.86,-47,41,-936,23.6,24.5,2.1,23.7,2.2,-27.3,5.73,2.61,-26.2,29.1
2012-08-28 01:29:00,0.0,1.8949,0.0010,386.26,0.30,327.1,31.4,138.07,30.98,24.66,36.54,0.84,-26.28,-7.57,-47,41,-936,23.6,24.9,2.4,23.7,2.2,-27.4,5.73,2.60,-26.2,29.0
2012-08-28 01:30:00,0.0,1.8951,0.0009,386.39,0.31,321.3,28.9,138.07,30.98,24.66,36.54,0.86,-26.26,-6.35,-47,41,-936,23.6,24.9,2.4,23.7,2.2,-27.4,5.73,2.58,-26.3,29.1
2012-08-28 01:31:00,0.0,1.8952,0.0009,386.37,0.25,311.2,27.8,138.07,30.98,24.66,36.54,0.90,-26.25,-5.20,-47,41,-936,23.6,25.1,2.5,23.7,2.2,-27.5,5.73,2.62,-26.3,29.1
2012-08-28 01:32:00,0.0,1.8950,0.0007,386.24,0.27,314.4,26.1,138.07,30.97,24.66,36.54,0.93,-26.23,-4.10,-47,41,-935,23.6,25.5,2.7,23.7,2.2,-27.6,5.73,2.59,-26.3,29.1
2012-08-28 01:33:00,0.0,1.8955,0.0009,386.38,0.25,306.4,31.5,138.07,30.98,24.66,36.53,0.95,-26.22,-3.06,-47,41,-935,23.6,25.4,2.7,23.7,2.1,-27.7,5.73,2.58,-26.4,29.1
2012-08-28 01:34:00,0.0,1.8953,0.0009,386.23,0.31,305.5,29.3,138.07,30.98,24.66,36.55,0.94,-26.20,-2.07,-47,41,-936,23.6,25.0,2.4,23.7,2.1,-27.7,5.73,2.62,-26.4,29.1
2012-08-28 01:35:00,0.0,1.8956,0.0009,386.48,0.29,303.9,32.5,138.07,30.98,24.65,36.54,0.92,-26.19,-1.13,-47,41,-936,23.7,24.8,2.3,23.7,2.1,-27.8,5.73,2.59,-26.4,29.1
2012-08-28 01:36:00,0.0,1.8952,0.0009,386.29,0.29,309.4,30.4,138.07,30.98,24.66,36.54,0.88,-26.17,-0.24,-47,41,-936,23.7,24.4,2.2,23.8,2.1,-27.7,5.73,2.58,-26.5,29.1
2012-08-28 01:37:00,0.0,1.8950,0.0009,386.15,0.26,305.7,29.5,138.07,30.98,24.66,36.54,0.88,-26.15,0.61,-47,41,-936,23.7,24.1,2.0,23.8,2.1,-27.8,5.73,2.62,-26.5,29.1
2012-08-28 01:38:00,0.0,1.8952,0.0009,386.45,0.29,298.4,29.1,138.07,30.98,24.66,36.54,0.89,-26.14,1.41,-47,41,-936,23.7,23.8,1.8,23.8,2.1,-27.9,5.73,2.59,-26.5,29.1
2012-08-28 01:39:00,0.0,1.8953,0.0010,386.26,0.29,301.8,28.2,138.07,30.98,24.66,36.54,0.88,-26.12,2.14,-47,41,-936,23.7,24.0,2.0,23.8,2.1,-27.9,5.73,2.58,-26.5,29.1
2012-08-28 01:40:00,0.0,1.8948,0.0008,386.47,0.29,298.6,30.8,138.07,30.98,24.66,36.54,0.92,-26.11,2.77,-47,41,-936,23.7,23.7,1.8,23.8,2.1,-28.0,5.73,2.62,-26.6,29.1
2012-08-28 01:41:00,0.0,1.8956,0.0010,386.38,0.32,291.1,28.2,138.07,30.98,24.66,36.54,0.92,-26.10,3.13,-47,41,-936,23.7,23.7,1.8,23.8,2.1,-28.1,5.73,2.59,-26.6,29.1
2012-08-28 01:42:00,0.0,1.8955,0.0011,386.52,0.29,300.8,27.9,138.07,30.98,24.66,36.53,0.94,-26.08,3.29,-47,41,-936,23.8,24.0,2.0,23.8,2.1,-28.0,5.73,2.60,-26.6,29.1
2012-08-28 01:43:00,0.0,1.8950,0.0010,386.40,0.29,302.0,26.2,138.07,30.98,24.66,36.54,0.95,-26.07,3.54,-47,41,-936,23.8,23.8,1.9,23.8,2.1,-28.1,5.73,2.62,-26.6,29.1
2012-08-28 01:44:00,0.0,1.8951,0.0009,386.30,0.34,302.2,28.1,138.07,30.98,24.66,36.54,0.95,-26.06,3.98,-47,41,-936,23.8,23.8,1.9,23.8,2.0,-28.2,5.73,2.57,-26.7,29.1
2012-08-28 01:45:00,0.0,1.8955,0.0010,386.37,0.25,287.4,28.6,138.07,30.98,24.66,36.54,0.95,-26.04,4.55,-47,41,-936,23.8,23.8,1.9,23.9,2.0,-28.1,5.73,2.61,-26.7,29.2
2012-08-28 01:46:00,0.0,1.8952,0.0009,386.48,0.31,287.6,26.4,138.07,30.98,24.66,36.54,0.91,-26.03,5.14,-47,41,-936,23.9,23.3,1.7,23.9,2.0,-28.1,5.73,2.61,-26.7,29.2
2012-08-28 01:47:00,0.0,1.8955,0.0010,386.36,0.28,294.2,27.3,138.07,30.98,24.66,36.55,0.88,-26.03,5.67,-47,41,-936,23.9,23.3,1.6,23.9,2.0,-28.2,5.73,2.58,-26.7,29.1
2012-08-28 01:48:00,0.0,1.8956,0.0008,386.48,0.30,286.9,27.0,138.07,30.98,24.66,36.54,0.89,-26.01,6.19,-47,41,-936,23.9,23.4,1.8,23.9,2.0,-28.3,5.73,2.62,-26.7,29.2
2012-08-28 01:49:00,0.0,1.8955,0.0009,386.43,0.29,294.6,25.1,138.07,30.98,24.66,36.54,0.88,-26.00,6.69,-47,41,-936,23.9,23.8,2.0,23.9,2.0,-28.2,5.73,2.60,-26.7,29.2
2012-08-28 01:50:00,0.0,1.8953,0.0008,386.40,0.34,287.0,32.0,138.07,30.97,24.66,36.54,0.91,-25.99,7.16,-47,41,-936,24.0,23.7,2.0,23.9,2.0,-28.3,5.73,2.58,-26.7,29.2
2012-08-28 01:51:00,0.0,1.8954,0.0009,386.44,0.25,296.9,27.6,138.07,30.97,24.66,36.54,0.91,-25.98,7.61,-47,41,-935,24.0,23.8,2.1,23.9,2.0,-28.3,5.73,2.63,-26.7,29.2
2012-08-28 01:52:00,0.0,1.8951,0.0010,386.36,0.27,296.1,26.3,138.07,30.97,24.66,36.54,0.93,-25.97,8.05,-48,41,-936,24.0,23.7,2.0,23.9,2.0,-28.3,5.73,2.58,-26.7,29.2
2012-08-28 01:53:00,0.0,1.8956,0.0008,386.24,0.31,283.4,30.9,138.07,30.97,24.66,36.54,0.93,-25.97,8.47,-47,41,-936,24.0,24.0,2.2,23.9,2.0,-28.3,5.73,2.59,-26.7,29.2
2012-08-28 01:54:00,0.0,1.8955,0.0008,386.37,0.29,298.0,26.5,138.07,30.97,24.66,36.54,0.94,-25.96,8.88,-48,41,-936,24.0,23.7,2.0,24.0,2.0,-28.2,5.73,2.62,-26.7,29.3
2012-08-28 01:55:00,0.0,1.8955,0.0010,386.38,0.32,289.3,28.9,138.07,30.96,24.66,36.54,0.93,-25.95,9.26,-47,41,-936,24.0,24.0,2.2,24.0,2.0,-28.2,5.73,2.58,-26.7,29.3
2012-08-28 01:56:00,0.0,1.8953,0.0008,386.33,0.29,291.0,32.2,138.07,30.96,24.66,36.53,0.94,-25.94,9.64,-47,41,-936,24.1,24.6,2.6,24.0,2.0,-28.2,5.73,2.59,-26.7,29.3
2012-08-28 01:57:00,0.0,1.8954,0.0008,386.33,0.25,291.2,27.4,138.07,30.96,24.66,36.54,0.94,-25.94,10.00,-48,41,-936,24.1,24.3,2.4,24.0,2.0,-28.2,5.73,2.62,-26.8,29.2
2012-08-28 01:58:00,0.0,1.8955,0.0010,386.42,0.32,286.1,25.8,138.07,30.96,24.66,36.54,0.92,-25.93,10.35,-47,41,-936,24.1,23.9,2.2,24.0,2.0,-28.2,5.73,2.57,-26.8,29.3
2012-08-28 01:59:00,0.0,1.8954,0.0007,386.30,0.36,287.0,26.4,138.07,30.96,24.66,36.55,0.92,-25.92,10.70,-48,41,-936,24.1,23.8,2.1,24.0,2.0,-28.3,5.73,2.60,-26.8,29.3
2012-08-28 02:00:00,0.0,1.8953,0.0008,386.51,0.30,285.7,27.8,138.07,30.96,24.66,36.53,1.09,-44.50,-10.69,-47,41,-936,24.1,23.2,1.8,24.0,2.0,-28.3,5.42,2.58,-31.0,29.3
2012-08-28 02:01:00,0.0,1.8954,0.0009,386.30,0.27,273.3,32.8,138.07,30.96,24.66,36.54,0.91,-25.92,11.36,-48,41,-936,24.1,23.3,1.9,24.0,2.0,-28.3,5.73,2.57,-26.8,29.3
2012-08-28 02:02:00,0.0,1.8951,0.0010,386.41,0.31,285.6,34.8,138.07,30.96,24.66,36.54,0.91,-25.91,11.67,-48,41,-936,24.1,23.4,1.9,24.1,2.0,-28.3,5.73,2.61,-26.8,29.3
2012-08-28 02:03:00,0.0,1.8953,0.0008,386.43,0.30,283.5,28.5,138.07,30.96,24.66,36.54,0.90,-25.91,11.98,-48,41,-936,24.2,23.2,1.8,24.1,2.0,-28.3,5.73,2.61,-26.8,29.4
2012-08-28 02:04:00,0.0,1.8958,0.0009,386.32,0.28,289.0,27.4,138.07,30.96,24.66,36.54,0.91,-25.90,12.27,-48,41,-936,24.2,23.6,2.1,24.1,2.0,-28.3,5.73,2.57,-26.8,29.4
2012-08-28 02:05:00,0.0,1.8956,0.0009,386.32,0.29,282.5,33.3,138.07,30.96,24.66,36.54,0.92,-25.90,12.55,-48,41,-936,24.2,23.4,2.0,24.1,2.0,-28.3,5.73,2.62,-26.8,29.4
2012-08-28 02:06:00,0.0,1.8956,0.0009,386.42,0.34,280.4,28.3,138.07,30.96,24.66,36.53,0.92,-25.89,12.83,-48,41,-936,24.2,23.3,1.9,24.1,2.0,-28.3,5.73,2.60,-26.8,29.3
2012-08-28 02:07:00,0.0,1.8959,0.0010,386.36,0.29,274.4,28.6,138.07,30.96,24.66,36.54,0.93,-25.89,13.09,-48,41,-936,24.2,23.1,1.9,24.1,2.0,-28.3,5.73,2.58,-26.8,29.4
2012-08-28 02:08:00,0.0,1.8956,0.0009,386.20,0.36,285.5,26.2,138.07,30.96,24.66,36.54,0.92,-25.89,13.34,-48,41,-936,24.3,23.3,2.0,24.1,2.0,-28.3,5.73,2.62,-26.8,29.4
2012-08-28 02:09:00,0.0,1.8959,0.0008,386.40,0.29,278.7,28.5,138.07,30.96,24.66,36.54,0.93,-25.88,13.57,-48,41,-936,24.3,22.9,1.7,24.1,2.0,-28.3,5.73,2.58,-26.8,29.4
2012-08-28 02:10:00,0.0,1.8956,0.0007,386.11,0.32,279.6,27.8,138.07,30.95,24.66,36.54,0.93,-25.88,13.81,-48,40,-936,24.3,23.2,1.9,24.1,2.0,-28.3,5.73,2.59,-26.9,29.4
2012-08-28 02:11:00,0.0,1.8961,0.0008,386.27,0.30,280.5,23.8,138.07,30.95,24.66,36.54,0.94,-25.87,14.02,-48,40,-936,24.3,23.2,1.9,24.1,2.0,-28.3,5.73,2.62,-26.9,29.3
2012-08-28 02:12:00,0.0,1.8959,0.0008,386.21,0.33,275.4,28.4,138.07,30.95,24.66,36.54,0.94,-25.87,14.23,-48,40,-936,24.3,23.1,1.9,24.1,2.0,-28.3,5.73,2.57,-26.9,29.4
2012-08-28 02:13:00,0.0,1.8962,0.0008,386.33,0.30,274.4,27.7,138.07,30.95,24.66,36.54,0.94,-25.86,14.43,-48,40,-936,24.3,22.8,1.7,24.2,2.0,-28.3,5.73,2.61,-26.9,29.5
2012-08-28 02:14:00,0.0,1.8962,0.0009,386.27,0.33,280.2,28.4,138.07,30.95,24.66,36.54,0.94,-25.86,14.63,-48,40,-936,24.3,22.9,1.8,24.2,2.0,-28.2,5.73,2.61,-26.9,29.4
2012-08-28 02:15:00,0.0,1.8959,0.0009,386.40,0.32,283.5,29.9,138.07,30.95,24.66,36.54,0.94,-25.86,14.81,-48,40,-936,24.3,22.6,1.6,24.2,2.0,-28.3,5.73,2.57,-26.9,29.4
2012-08-28 02:16:00,0.0,1.8955,0.0008,386.37,0.30,279.4,25.7,138.07,30.95,24.66,36.54,0.93,-25.86,14.99,-48,41,-936,24.3,22.9,1.8,24.2,2.0,-28.4,5.73,2.61,-26.9,29.4
2012-08-28 02:17:00,0.0,1.8962,0.0009,386.25,0.39,282.8,33.6,138.07,30.95,24.66,36.54,0.92,-25.85,15.16,-48,40,-936,24.3,23.0,1.9,24.2,2.0,-28.3,5.73,2.61,-26.9,29.5
2012-08-28 02:18:00,0.0,1.8959,0.0009,386.34,0.31,277.0,35.6,138.07,30.95,24.66,36.54,0.93,-25.85,15.32,-48,40,-936,24.4,23.0,1.9,24.2,1.9,-28.5,5.73,2.57,-26.8,29.5
2012-08-28 02:19:00,0.0,1.8962,0.0011,386.43,0.29,275.8,28.1,138.07,30.95,24.66,36.55,0.92,-25.85,15.48,-48,40,-936,24.4,22.8,1.8,24.2,1.9,-28.7,5.73,2.62,-26.8,29.5
2012-08-28 02:20:00,0.0,1.8963,0.0009,386.37,0.30,281.4,28.1,138.07,30.95,24.66,36.54,0.92,-25.84,15.63,-48,40,-936,24.4,22.7,1.7,24.3,1.9,-28.6,5.73,2.60,-26.8,29.5